Date String (YYYY-MM-DD hh:mm:ss) UTC,Instrument flags,Ambient pressure (hPa),Sample flow (lpm),Bypass flow (lpm),Sample temperature (°C),Ambient temperature (°C),ASC tube jacket temperature (°C),LED temperature (°C),Box temperature (°C),Sample RH (%),Span deviation,Mass concentration (μg/m³),Mass concentration (μg/m³),Mass concentration (μg/m³)
DateTimeUTC,F1_M11,P_M11,Q1_M11,Q2_M11,T1_M11,T2_M11,T3_M11,T4_M11,T5_M11,U1_M11,ZSPAN_M11,X0_M11,X2_M11,X1_M11
2022-04-05 08:00:00,,0808.2,4.99,0.00,26.1,25.2,00.0,35.2,27.9,10.8,0000.0,0013.70,0003.90,0001.79
2022-04-05 08:01:00,,0808.2,5.00,0.00,26.1,25.2,00.0,35.2,27.9,10.8,0000.0,0013.64,0003.92,0001.79
2022-04-05 08:02:00,,0808.4,5.01,0.00,26.1,25.2,00.0,35.2,27.8,10.9,0000.0,0013.09,0003.92,0001.79
2022-04-05 08:03:00,,0808.1,5.00,0.00,26.1,25.2,00.0,35.2,27.8,11.0,0000.0,0011.98,0003.85,0001.77
2022-04-05 08:04:00,,0808.0,5.00,0.00,26.1,25.2,00.0,35.2,27.7,10.9,0000.0,0012.29,0003.86,0001.77
2022-04-05 08:05:00,,0808.0,5.00,0.00,26.0,25.1,00.0,35.2,27.8,11.3,0000.0,0012.01,0003.81,0001.78
2022-04-05 08:06:00,,0808.1,4.99,0.00,26.1,25.1,00.0,35.2,27.8,11.5,0000.0,0011.75,0003.87,0001.80
2022-04-05 08:07:00,,0808.3,5.01,0.00,26.1,25.2,00.0,35.1,27.9,11.4,0000.0,0011.83,0003.87,0001.81
2022-04-05 08:08:00,,0808.4,4.99,0.00,26.1,25.2,00.0,35.1,27.9,11.5,0000.0,0012.71,0003.87,0001.82
2022-04-05 08:09:00,,0808.2,5.01,0.00,26.1,25.2,00.0,35.1,27.9,11.4,0000.0,0013.22,0003.95,0001.83
2022-04-05 08:10:00,,0808.2,4.99,0.00,26.1,25.3,00.0,35.1,27.9,11.5,0000.0,0013.54,0003.99,0001.85
2022-04-05 08:11:00,,0808.2,4.99,0.00,26.1,25.3,00.0,35.1,28.0,11.5,0000.0,0014.52,0004.03,0001.87
2022-04-05 08:12:00,,0808.1,5.01,0.00,26.1,25.4,00.0,35.1,28.0,11.4,0000.0,0014.85,0004.08,0001.87
2022-04-05 08:13:00,,0808.2,4.99,0.00,26.2,25.4,00.0,35.1,28.0,11.3,0000.0,0015.07,0004.08,0001.87
2022-04-05 08:14:00,,0808.2,5.00,0.00,26.2,25.4,00.0,35.1,28.0,11.3,0000.0,0015.95,0004.17,0001.89
2022-04-05 08:15:00,,0808.3,5.01,0.00,26.2,25.4,00.0,35.1,28.0,11.4,0000.0,0016.12,0004.23,0001.90
2022-04-05 08:16:00,,0808.4,4.99,0.00,26.2,25.4,00.0,35.1,28.1,11.4,0000.0,0016.14,0004.32,0001.92
2022-04-05 08:17:00,,0808.1,4.99,0.00,26.2,25.5,00.0,35.1,28.0,11.3,0000.0,0016.01,0004.34,0001.92
2022-04-05 08:18:00,,0808.5,5.01,0.00,26.2,25.5,00.0,35.2,28.0,11.2,0000.0,0016.67,0004.35,0001.92
2022-04-05 08:19:00,,0808.3,4.99,0.00,26.2,25.5,00.0,35.2,28.0,11.0,0000.0,0015.79,0004.38,0001.92
2022-04-05 08:20:00,,0808.3,5.01,0.00,26.2,25.5,00.0,35.2,28.0,10.4,0000.0,0014.91,0004.28,0001.88
2022-04-05 08:21:00,,0808.2,4.99,0.00,26.2,25.5,00.0,35.2,28.1,10.4,0000.0,0014.78,0004.22,0001.84
2022-04-05 08:22:00,,0808.4,5.01,0.00,26.2,25.5,00.0,35.2,28.1,10.4,0000.0,0014.80,0004.15,0001.79
2022-04-05 08:23:00,,0808.0,4.99,0.00,26.2,25.5,00.0,35.2,28.1,10.4,0000.0,0014.57,0004.09,0001.77
2022-04-05 08:24:00,,0808.0,5.00,0.00,26.2,25.5,00.0,35.2,28.1,10.4,0000.0,0014.38,0004.09,0001.76
2022-04-05 08:25:00,,0807.7,5.02,0.00,26.2,25.5,00.0,35.2,28.1,10.5,0000.0,0013.37,0004.01,0001.74
2022-04-05 08:26:00,,0807.7,4.99,0.00,26.2,25.5,00.0,35.2,28.1,10.5,0000.0,0012.64,0003.92,0001.70
2022-04-05 08:27:00,,0808.1,4.99,0.00,26.3,25.5,00.0,35.2,28.1,10.5,0000.0,0012.01,0003.77,0001.66
2022-04-05 08:28:00,,0808.4,5.01,0.00,26.3,25.5,00.0,35.2,28.1,10.4,0000.0,0012.09,0003.65,0001.61
2022-04-05 08:29:00,,0808.2,4.99,0.00,26.3,25.5,00.0,35.2,28.1,10.4,0000.0,0010.83,0003.57,0001.56
2022-04-05 08:30:00,,0808.3,5.00,0.00,26.3,25.5,00.0,35.2,28.2,10.4,0000.0,0010.73,0003.53,0001.53
2022-04-05 08:31:00,,0808.5,5.01,0.00,26.3,25.5,00.0,35.2,28.1,10.4,0000.0,0011.12,0003.54,0001.51
2022-04-05 08:32:00,,0807.8,5.00,0.00,26.3,25.5,00.0,35.2,28.1,10.5,0000.0,0011.98,0003.54,0001.49
2022-04-05 08:33:00,,0807.6,5.00,0.00,26.2,25.5,00.0,35.2,28.1,10.6,0000.0,0011.25,0003.53,0001.48
2022-04-05 08:34:00,,0807.5,4.99,0.00,26.2,25.4,00.0,35.2,28.1,10.7,0000.0,0011.07,0003.48,0001.46
2022-04-05 08:35:00,,0807.8,5.00,0.00,26.3,25.3,00.0,35.2,28.1,10.6,0000.0,0011.56,0003.46,0001.45
2022-04-05 08:36:00,,0807.7,5.00,0.00,26.3,25.3,00.0,35.2,28.1,10.6,0000.0,0011.69,0003.47,0001.43
2022-04-05 08:37:00,,0807.5,5.00,0.00,26.3,25.3,00.0,35.2,28.1,10.6,0000.0,0011.49,0003.45,0001.44
2022-04-05 08:38:00,,0807.6,5.01,0.00,26.3,25.3,00.0,35.2,28.1,10.6,0000.0,0011.29,0003.47,0001.44
2022-04-05 08:39:00,,0807.5,5.00,0.00,26.3,25.3,00.0,35.2,28.1,10.7,0000.0,0011.20,0003.51,0001.44
2022-04-05 08:40:00,,0807.3,4.98,0.00,26.3,25.2,00.0,35.2,28.1,10.6,0000.0,0011.40,0003.52,0001.46
2022-04-05 08:41:00,,0807.2,5.02,0.00,26.3,25.2,00.0,35.2,28.0,10.6,0000.0,0012.14,0003.48,0001.45
2022-04-05 08:42:00,,0807.1,4.99,0.00,26.3,25.2,00.0,35.2,28.1,10.6,0000.0,0012.03,0003.48,0001.46
2022-04-05 08:43:00,,0807.3,5.00,0.00,26.3,25.2,00.0,35.2,28.1,10.6,0000.0,0011.87,0003.57,0001.47
2022-04-05 08:44:00,,0807.1,5.00,0.00,26.3,25.2,00.0,35.2,28.1,10.7,0000.0,0011.78,0003.55,0001.47
2022-04-05 08:45:00,,0807.0,5.01,0.00,26.3,25.2,00.0,35.2,28.1,10.6,0000.0,0011.95,0003.57,0001.47
2022-04-05 08:46:00,,0807.2,4.98,0.00,26.3,25.1,00.0,35.2,28.1,10.6,0000.0,0011.44,0003.57,0001.47
2022-04-05 08:47:00,,0807.1,5.02,0.00,26.3,25.1,00.0,35.2,28.1,10.6,0000.0,0011.44,0003.58,0001.46
2022-04-05 08:48:00,,0806.9,4.99,0.00,26.3,25.1,00.0,35.2,28.1,10.7,0000.0,0011.59,0003.60,0001.43
2022-04-05 08:49:00,,0807.0,4.99,0.00,26.3,25.1,00.0,35.2,28.1,10.6,0000.0,0011.57,0003.61,0001.41
2022-04-05 08:50:00,,0806.9,5.01,0.00,26.3,25.1,00.0,35.2,28.0,10.7,0000.0,0011.76,0003.61,0001.40
2022-04-05 08:51:00,,0806.7,4.99,0.00,26.3,25.1,00.0,35.2,28.0,10.7,0000.0,0012.20,0003.61,0001.42
2022-04-05 08:52:00,,0806.8,5.00,0.00,26.2,25.1,00.0,35.2,28.0,10.6,0000.0,0020.03,0003.71,0001.42
2022-04-05 08:53:00,,0806.9,4.99,0.00,26.2,25.1,00.0,35.2,28.0,10.6,0000.0,0022.51,0003.70,0001.42
2022-04-05 08:54:00,,0806.7,5.01,0.00,26.2,25.1,00.0,35.2,28.0,10.7,0000.0,0021.68,0003.61,0001.41
2022-04-05 08:55:00,,0806.4,4.99,0.00,26.2,25.0,00.0,35.2,28.0,10.5,0000.0,0021.41,0003.65,0001.40
2022-04-05 08:56:00,,0806.5,4.99,0.00,26.2,25.0,00.0,35.2,28.0,10.5,0000.0,0025.53,0003.70,0001.41
2022-04-05 08:57:00,,0806.4,5.02,0.00,26.2,25.0,00.0,35.2,28.0,10.5,0000.0,0026.96,0003.66,0001.38
2022-04-05 08:58:00,,0806.6,4.99,0.00,26.2,25.0,00.0,35.2,28.0,10.5,0000.0,0027.35,0003.67,0001.38
2022-04-05 08:59:00,,0806.3,5.00,0.00,26.2,24.9,00.0,35.2,28.0,10.5,0000.0,0027.54,0003.67,0001.39
